Location: Bow
(51.5261°N, 0.0167°W)
Time: 00:01:20
(UTC+00:00)

Cosmos 2082 Rocket - Visible Passes

Search period start: 24 January 2021 00:00
Search period end: 03 February 2021 00:00
Orbit: 831 x 855 km, 71.0° (Epoch: 23 January)

Date Brightness Start Highest point End Pass type
(mag) Time Alt. Az. Time Alt. Az. Time Alt. Az.
24 Jan 2.5 18:35:59 10° NNW 18:41:29 44° NE 18:43:03 36° E visible
24 Jan 3.3 20:20:15 10° NW 20:24:57 40° W 20:24:57 40° W visible
25 Jan 2.6 18:21:27 10° NNW 18:26:55 43° NE 18:29:42 26° ESE visible
25 Jan 3.1 20:05:40 10° NW 20:11:03 43° WSW 20:11:37 42° SW visible
26 Jan 2.6 18:06:54 10° NNW 18:12:20 41° NE 18:16:35 16° ESE visible
26 Jan 3.1 19:51:05 10° NW 19:56:31 45° WSW 19:58:31 32° SSW visible
27 Jan 2.7 17:52:22 10° NNW 17:57:46 40° NE 18:03:07 10° ESE visible
27 Jan 3.1 19:36:31 10° NW 19:41:59 47° WSW 19:45:48 19° S visible
28 Jan 2.7 17:37:49 10° NNW 17:43:12 39° NE 17:48:31 10° ESE visible
28 Jan 3.1 19:21:57 10° NW 19:27:27 48° WSW 19:32:52 10° S visible
29 Jan 2.7 17:23:16 10° NNW 17:28:37 38° NE 17:33:54 10° ESE visible
29 Jan 3.0 19:07:23 10° NW 19:12:54 50° WSW 19:18:21 10° S visible
30 Jan 3.0 18:52:48 10° NW 18:58:22 52° WSW 19:03:50 10° S visible
31 Jan 3.0 18:38:14 10° NW 18:43:49 54° WSW 18:49:19 10° S visible
01 Feb 3.0 18:23:40 10° NW 18:29:16 56° WSW 18:34:48 10° S visible
02 Feb 2.9 18:09:06 10° NW 18:14:43 58° WSW 18:20:16 10° S visible
02 Feb 5.5 19:56:56 10° W 19:57:34 10° W 19:58:12 10° W visible
